Date String (YYYY-MM-DD hh:mm:ss) UTC,Instrument flags,Ambient pressure (hPa),Sample flow (lpm),Bypass flow (lpm),Sample temperature (°C),Ambient temperature (°C),ASC tube jacket temperature (°C),LED temperature (°C),Box temperature (°C),Sample RH (%),Span deviation,Mass concentration (μg/m³),Mass concentration (μg/m³),Mass concentration (μg/m³)
DateTimeUTC,F1_M11,P_M11,Q1_M11,Q2_M11,T1_M11,T2_M11,T3_M11,T4_M11,T5_M11,U1_M11,ZSPAN_M11,X2_M11,X0_M11,X1_M11
2021-10-27 15:00:00,,0823.1,5.00,0.00,24.4,23.7,00.0,33.3,26.3,10.1,0000.0,0001.01,0003.21,0000.54
2021-10-27 15:01:00,,0823.1,5.00,0.00,24.4,23.7,00.0,33.4,26.3,10.1,0000.0,0001.03,0003.36,0000.55
2021-10-27 15:02:00,,0823.1,5.01,0.00,24.5,23.7,00.0,33.4,26.4,10.1,0000.0,0001.06,0004.64,0000.55
2021-10-27 15:03:00,,0823.2,5.00,0.00,24.5,23.7,00.0,33.4,26.4,10.0,0000.0,0001.06,0004.15,0000.54
2021-10-27 15:04:00,,0823.3,4.99,0.00,24.5,23.7,00.0,33.4,26.4,10.0,0000.0,0001.08,0004.19,0000.55
2021-10-27 15:05:00,,0823.2,5.00,0.00,24.5,23.8,00.0,33.4,26.5,10.2,0000.0,0001.14,0004.34,0000.55
2021-10-27 15:06:00,,0823.3,5.00,0.00,24.5,23.8,00.0,33.5,26.5,10.3,0000.0,0001.12,0004.00,0000.55
2021-10-27 15:07:00,,0823.3,5.00,0.00,24.5,23.8,00.0,33.5,26.5,10.3,0000.0,0001.12,0005.13,0000.56
2021-10-27 15:08:00,,0823.3,5.00,0.00,24.6,23.8,00.0,33.5,26.5,10.3,0000.0,0001.11,0005.59,0000.55
2021-10-27 15:09:00,,0823.3,4.99,0.00,24.6,23.8,00.0,33.5,26.5,10.3,0000.0,0001.08,0005.54,0000.55
2021-10-27 15:10:00,,0823.3,4.99,0.00,24.6,23.8,00.0,33.5,26.5,10.5,0000.0,0001.10,0005.63,0000.55
2021-10-27 15:11:00,,0823.4,5.01,0.00,24.6,23.8,00.0,33.5,26.5,10.5,0000.0,0001.11,0005.56,0000.55
2021-10-27 15:12:00,,0823.4,4.99,0.00,24.6,23.8,00.0,33.6,26.5,10.2,0000.0,0001.14,0005.50,0000.55
2021-10-27 15:13:00,,0823.3,5.01,0.00,24.6,23.8,00.0,33.6,26.5,09.8,0000.0,0001.14,0004.34,0000.55
2021-10-27 15:14:00,,0823.2,4.99,0.00,24.6,23.9,00.0,33.6,26.6,09.9,0000.0,0001.13,0004.83,0000.55
2021-10-27 15:15:00,,0823.2,5.02,0.00,24.6,23.9,00.0,33.6,26.6,10.1,0000.0,0001.14,0005.81,0000.55
2021-10-27 15:16:00,,0823.2,5.01,0.00,24.6,23.9,00.0,33.6,26.6,10.2,0000.0,0001.07,0005.87,0000.54
2021-10-27 15:17:00,,0823.2,4.99,0.00,24.7,23.9,00.0,33.6,26.6,10.1,0000.0,0001.02,0006.63,0000.54
2021-10-27 15:18:00,,0823.2,5.00,0.00,24.7,23.9,00.0,33.7,26.6,10.4,0000.0,0001.00,0006.14,0000.54
2021-10-27 15:19:00,,0823.3,5.00,0.00,24.7,23.9,00.0,33.7,26.6,10.5,0000.0,0000.98,0004.88,0000.54
2021-10-27 15:20:00,,0823.3,5.01,0.00,24.7,23.9,00.0,33.7,26.6,10.5,0000.0,0000.96,0004.83,0000.54
2021-10-27 15:21:00,,0823.4,5.00,0.00,24.7,23.9,00.0,33.7,26.6,10.4,0000.0,0000.96,0004.95,0000.54
2021-10-27 15:22:00,,0823.3,5.00,0.00,24.7,23.9,00.0,33.7,26.6,10.6,0000.0,0000.97,0005.00,0000.56
2021-10-27 15:23:00,,0823.3,4.99,0.00,24.7,23.9,00.0,33.7,26.6,10.6,0000.0,0000.95,0004.96,0000.57
2021-10-27 15:24:00,,0823.4,5.00,0.00,24.7,23.9,00.0,33.7,26.6,10.6,0000.0,0000.95,0005.02,0000.58
2021-10-27 15:25:00,,0823.4,5.01,0.00,24.7,23.9,00.0,33.7,26.6,10.6,0000.0,0000.99,0005.09,0000.59
2021-10-27 15:26:00,,0823.3,4.99,0.00,24.7,23.9,00.0,33.7,26.6,10.5,0000.0,0001.04,0004.20,0000.60
2021-10-27 15:27:00,,0823.4,4.99,0.00,24.7,24.0,00.0,33.7,26.6,10.4,0000.0,0001.05,0003.93,0000.61
2021-10-27 15:28:00,,0823.3,5.00,0.00,24.7,24.0,00.0,33.7,26.6,10.2,0000.0,0001.06,0003.05,0000.62
2021-10-27 15:29:00,,0823.2,5.00,0.00,24.7,24.0,00.0,33.7,26.6,10.4,0000.0,0001.09,0003.25,0000.63
2021-10-27 15:30:00,,0823.2,5.00,0.00,24.8,24.0,00.0,33.7,26.7,10.5,0000.0,0001.12,0003.34,0000.64
2021-10-27 15:31:00,,0823.2,5.00,0.00,24.8,24.0,00.0,33.7,26.7,10.6,0000.0,0001.15,0003.40,0000.64
2021-10-27 15:32:00,,0823.1,5.01,0.00,24.8,24.1,00.0,33.8,26.7,09.9,0000.0,0001.12,0003.17,0000.65
2021-10-27 15:33:00,,0823.1,5.01,0.00,24.8,24.1,00.0,33.8,26.7,09.8,0000.0,0001.05,0002.89,0000.64
2021-10-27 15:34:00,,0823.1,5.00,0.00,24.8,24.1,00.0,33.8,26.7,10.3,0000.0,0001.04,0002.95,0000.63
2021-10-27 15:35:00,,0823.1,5.00,0.00,24.9,24.1,00.0,33.8,26.8,10.4,0000.0,0001.05,0002.87,0000.63
2021-10-27 15:36:00,,0823.1,4.99,0.00,24.9,24.1,00.0,33.8,26.8,10.3,0000.0,0001.03,0002.28,0000.63
2021-10-27 15:37:00,,0823.1,5.00,0.00,24.9,24.1,00.0,33.8,26.8,10.2,0000.0,0000.98,0002.45,0000.61
2021-10-27 15:38:00,,0823.0,5.00,0.00,24.9,24.1,00.0,33.9,26.8,10.3,0000.0,0000.99,0002.76,0000.60
2021-10-27 15:39:00,,0823.0,5.00,0.00,24.9,24.1,00.0,33.9,26.8,10.6,0000.0,0000.99,0002.66,0000.60
2021-10-27 15:40:00,,0823.0,4.99,0.00,24.9,24.2,00.0,33.9,26.8,10.5,0000.0,0001.01,0004.05,0000.60
2021-10-27 15:41:00,,0823.2,5.00,0.00,24.9,24.2,00.0,33.9,26.8,09.8,0000.0,0001.01,0005.85,0000.60
2021-10-27 15:42:00,,0823.2,5.01,0.00,24.9,24.2,00.0,33.9,26.8,10.1,0000.0,0000.97,0005.74,0000.60
2021-10-27 15:43:00,,0823.2,4.99,0.00,25.0,24.2,00.0,33.9,26.8,10.1,0000.0,0000.96,0006.36,0000.59
2021-10-27 15:44:00,,0823.1,5.01,0.00,25.0,24.2,00.0,33.9,26.8,09.9,0000.0,0001.00,0006.52,0000.60
2021-10-27 15:45:00,,0823.1,4.99,0.00,25.0,24.2,00.0,33.9,26.9,09.8,0000.0,0001.03,0006.56,0000.60
2021-10-27 15:46:00,,0823.0,5.00,0.00,25.0,24.2,00.0,34.0,26.9,09.6,0000.0,0001.02,0007.32,0000.60
2021-10-27 15:47:00,,0823.1,5.00,0.00,25.0,24.2,00.0,34.0,26.9,09.5,0000.0,0001.04,0008.52,0000.59
2021-10-27 15:48:00,,0823.1,4.99,0.00,25.0,24.2,00.0,34.0,26.9,09.6,0000.0,0001.04,0009.36,0000.58
2021-10-27 15:49:00,,0823.1,5.01,0.00,25.0,24.2,00.0,34.0,26.9,09.4,0000.0,0001.01,0010.06,0000.58
2021-10-27 15:50:00,,0823.0,4.99,0.00,25.0,24.2,00.0,34.0,26.9,08.9,0000.0,0001.03,0010.40,0000.58
2021-10-27 15:51:00,,0823.1,5.00,0.00,25.0,24.3,00.0,34.0,27.0,09.1,0000.0,0000.97,0009.56,0000.56
2021-10-27 15:52:00,,0823.0,5.00,0.00,25.0,24.3,00.0,34.0,27.0,09.1,0000.0,0000.92,0008.47,0000.55
2021-10-27 15:53:00,,0822.9,4.99,0.00,25.1,24.3,00.0,34.0,27.0,08.9,0000.0,0000.90,0008.45,0000.53
2021-10-27 15:54:00,,0822.9,5.00,0.00,25.1,24.3,00.0,34.0,27.0,08.9,0000.0,0000.87,0008.10,0000.51
2021-10-27 15:55:00,,0823.0,5.00,0.00,25.1,24.3,00.0,34.0,27.0,09.1,0000.0,0000.84,0008.03,0000.49
2021-10-27 15:56:00,,0823.0,5.00,0.00,25.1,24.3,00.0,34.1,27.0,09.3,0000.0,0000.77,0008.05,0000.48
2021-10-27 15:57:00,,0822.9,4.99,0.00,25.1,24.3,00.0,34.1,27.1,09.5,0000.0,0000.73,0008.28,0000.46
2021-10-27 15:58:00,,0823.0,5.00,0.00,25.1,24.4,00.0,34.1,27.1,09.6,0000.0,0000.67,0007.37,0000.45
2021-10-27 15:59:00,,0822.9,4.99,0.00,25.1,24.4,00.0,34.1,27.1,09.5,0000.0,0000.66,0005.55,0000.44
